THORAD AGENA D DEB

Satellite information

Favourite Embed

Satellite Type and Status

DEBRISIN ORBIT

Key statistics

Satellite THORAD AGENA D DEB at a glance.

Uptime

20288

Days in orbit

Revolutions

≈ 14.3

Per day

Orbit

SSO

Sun Synchronous Orbit

Inclination

99.3

Latest

Satellite identification and parameters

Extended collection of information and parameters for THORAD AGENA D DEB.

Object identification

Identified? True

Debris? True

Object name: THORAD AGENA D DEB

International designator: 1970-025LL

Object number (NORAD): 5507

Object ID (CCSDS): 5507

Country: UNITED STATES OF AMERICA (US)

Current information (Y/N): Y

RCS size: SMALL

Orbital parameters

Period: 100.404 minutes

Inclination: 99.2878 deg

SMA: 7155.861 km

Apoapsis: 795.648 km

Periapsis: 759.803 km

RAAN: 319.015 deg

Eccentricy: 0.0025046

Argument of periapsis: 42.3755 deg

Mean anomaly: 317.9356 deg

Mean motion: 14.34200712 rev/day

Mean motion (dot): 0.00006239 rev/day2

B* drag term: 0.0022337 1/REarth

Two-line elements (TLE)

Creation date: Oct. 23, 2025, 10:06 p.m.

Reference frame: TEME

Reference center: EARTH

Epoch: Oct. 23, 2025, 7:38 a.m. UTC

TLE line 0: 0 THORAD AGENA D DEB

TLE line 1: 1 5507U 70025LL 25296.31838098 .00006239 00000-0 22337-2 0 9994

TLE line 2: 2 5507 99.2878 319.0150 0025046 42.3755 317.9356 14.34200712817806

Live tracking on map

Real-time ground track for satellite THORAD AGENA D DEB.

In-orbit conjunctions

A list of the most updated potential collisions computed for object THORAD AGENA D DEB.

Target Orbit TCA Probability of collision Miss distance Type
FENGYUN 1C DEB SSO 2025-05-05 13:02:20 0.0005176488 70.0 (m) DEBRIS
CZ-4C DEB SSO 2024-07-08 09:26:43 0.001416565 82.0 (m) DEBRIS

Associated space launch

Meteorological research and development satellite

THORAD AGENA D DEB was lifted into orbit during the mission ‘Thorad SLV-2G Agena D | Nimbus 4’, on board a Thorad SLV-2G Agena D space rocket.

The launch took place on April 8, 1970, 8:17 a.m. from Space Launch Complex 2E.

For more information about the launch, click the button.

Launch to space Thorad SLV-2G Agena D | Nimbus 4
Thorad SLV-2G Agena D | Nimbus 4

Agency: N/A

Status: Launch Successful

Launch date: April 8, 1970, 8:17 a.m. UTC

Rocket: Thorad SLV-2G Agena D

Launch pad: Space Launch Complex 2E

Location: Vandenberg SFB, CA, USA

...

Latest news about this satellite

There are no fresh news available about this satellite. Check back as we update our databases every day.


Newsletter sign-up

Weekly statistics, charts and insights to help you stay on top of the space industry.